N8YZF Weather Reports


Display with metric or nautical units.
time (UTC)temp
F
wind
direction
speed
MPH
gust
MPH
rain 1hr
in
rain 24hr
in
rain mn
in
humidity
%
barometer
mb
20260509134802 58 247 5.0 9.0 0.00 0.00 0.00 71 997.0
20260509134302 58 198 6.0 16.0 0.00 0.00 0.00 72 997.3
20260509133800 57 254 7.0 16.0 0.00 0.00 0.00 73 997.3
20260509133259 57 254 6.0 14.0 0.00 0.00 0.00 73 997.2
20260509132757 57 212 6.0 14.0 0.00 0.00 0.00 74 997.1
20260509132258 57 241 6.0 12.0 0.00 0.00 0.00 74 997.1
20260509131757 56 223 5.0 13.0 0.00 0.00 0.00 75 997.1
20260509131256 56 275 5.0 13.0 0.00 0.00 0.00 76 997.0
20260509130758 56 226 6.0 12.0 0.00 0.00 0.00 77 997.0
20260509130256 56 204 7.0 13.0 0.00 0.00 0.00 77 997.0
20260509125754 56 202 6.0 15.0 0.00 0.00 0.00 79 997.0
20260509125257 55 171 5.0 15.0 0.00 0.00 0.00 79 996.9
20260509124756 55 213 5.0 10.0 0.00 0.00 0.00 80 996.9
20260509124408 54 232 5.0 9.0 0.00 0.00 0.00 80 997.0
20260509124345 55 209 5.0 9.0 0.00 0.00 0.00 80 997.0
20260509123253 54 215 5.0 10.0 0.00 0.00 0.00 81 997.0
20260509122751 54 229 4.0 10.0 0.00 0.00 0.00 81 996.9
20260509122250 54 201 5.0 11.0 0.00 0.00 0.00 82 996.8
20260509121733 53 203 5.0 11.0 0.00 0.00 0.00 82 996.8
20260509121232 53 182 4.0 9.0 0.00 0.00 0.00 83 997.3
20260509121015 53 152 4.0 12.0 0.00 0.00 0.00 83 997.3
20260509120217 53 217 4.0 12.0 0.00 0.00 0.00 83 997.2
20260509120018 52 221 4.0 9.0 0.00 0.00 0.00 84 997.3
20260509115212 52 200 4.0 9.0 0.00 0.00 0.00 84 997.3
20260509114708 52 194 4.0 7.0 0.00 0.00 0.00 85 997.3
20260509114531 51 227 5.0 9.0 0.00 0.00 0.00 85 997.2
20260509113705 51 222 4.0 9.0 0.00 0.00 0.00 85 997.2
20260509113209 51 213 4.0 8.0 0.00 0.00 0.00 85 997.2
20260509112706 50 229 3.0 8.0 0.00 0.00 0.00 85 997.5
20260509112514 50 194 3.0 7.0 0.00 0.00 0.00 85 997.5
20260509112000 50 193 3.0 8.0 0.00 0.00 0.00 85 997.5
20260509111206 50 175 3.0 8.0 0.00 0.00 0.00 85 997.3
20260509110706 50 169 3.0 7.0 0.00 0.00 0.00 85 997.3
20260509110203 50 192 4.0 10.0 0.00 0.00 0.00 85 997.3
20260509105703 50 227 4.0 10.0 0.00 0.00 0.00 84 997.2
20260509105201 50 252 4.0 8.0 0.00 0.00 0.00 84 997.2
20260509104702 50 186 4.0 8.0 0.00 0.00 0.00 84 997.2
20260509104200 50 219 3.0 7.0 0.00 0.00 0.00 84 997.2
20260509103700 50 196 3.0 7.0 0.00 0.00 0.00 83 997.2
20260509103155 50 211 4.0 7.0 0.00 0.00 0.00 82 997.2
20260509102653 50 146 4.0 7.0 0.00 0.00 0.00 82 997.4
20260509102453 50 241 3.0 7.0 0.00 0.00 0.00 82 997.4
20260509101649 50 207 3.0 7.0 0.00 0.00 0.00 81 997.4
20260509101457 50 246 4.0 10.0 0.00 0.00 0.00 81 997.6
20260509100631 50 200 4.0 10.0 0.00 0.00 0.00 80 997.6
20260509100418 49 190 3.0 7.0 0.00 0.00 0.00 80 997.6
20260509095607 49 214 3.0 6.0 0.00 0.00 0.00 78 997.9
20260509095107 49 198 3.0 7.0 0.00 0.00 0.00 77 997.8
20260509094558 49 174 3.0 7.0 0.00 0.00 0.00 76 997.8
20260509094059 49 195 2.0 7.0 0.00 0.00 0.00 74 998.2
20260509093600 49 182 2.0 6.0 0.00 0.00 0.00 73 998.2
20260509093103 49 198 2.0 6.0 0.00 0.00 0.00 72 998.2
20260509092557 49 195 3.0 6.0 0.00 0.00 0.00 71 998.3
20260509092058 49 135 3.0 6.0 0.00 0.00 0.00 70 998.3
20260509091552 49 173 2.0 6.0 0.00 0.00 0.00 69 998.3
20260509091049 49 204 2.0 8.0 0.00 0.00 0.00 68 998.5
20260509090507 49 175 3.0 8.0 0.00 0.00 0.00 67 998.5
20260509090306 49 198 3.0 6.0 0.00 0.00 0.00 66 998.5
20260509085457 50 203 3.0 6.0 0.00 0.00 0.00 65 998.7
20260509085005 50 208 4.0 9.0 0.00 0.00 0.00 64 998.8
20260509084453 50 227 4.0 9.0 0.00 0.00 0.00 63 998.9
20260509083952 50 182 3.0 8.0 0.00 0.00 0.00 62 998.9
20260509083452 50 213 3.0 7.0 0.00 0.00 0.00 60 998.9
20260509082955 50 186 3.0 7.0 0.00 0.00 0.00 59 999.0
20260509082752 50 227 3.0 7.0 0.00 0.00 0.00 58 999.0
20260509081949 50 200 4.0 8.0 0.00 0.00 0.00 57 999.0
20260509081919 50 238 3.0 8.0 0.00 0.00 0.00 54 999.4
20260509081913 50 202 4.0 8.0 0.00 0.00 0.00 56 999.4
20260509080447 50 189 3.0 7.0 0.00 0.00 0.00 52 999.4
20260509075940 49 163 3.0 7.0 0.00 0.00 0.00 51 999.6
20260509075438 49 207 3.0 7.0 0.00 0.00 0.00 50 999.6
20260509074918 49 201 2.0 7.0 0.00 0.00 0.00 49 999.5
20260509074418 49 150 2.0 5.0 0.00 0.00 0.00 49 999.8
20260509073918 48 188 2.0 5.0 0.00 0.00 0.00 49 999.8
20260509073722 48 202 1.0 6.0 0.00 0.00 0.00 50 999.7
20260509072918 47 191 1.0 6.0 0.00 0.00 0.00 51 1000.0
20260509072416 47 188 1.0 6.0 0.00 0.00 0.00 52 1000.0
20260509072224 46 178 1.0 5.0 0.00 0.00 0.00 52 999.8
20260509071417 45 164 1.0 4.0 0.00 0.00 0.00 55 1000.0
20260509070915 44 183 1.0 4.0 0.00 0.00 0.00 58 1000.0
20260509070411 43 139 1.0 4.0 0.00 0.00 0.00 62 999.8
20260509065855 42 145 0.0 2.0 0.00 0.00 0.00 68 1000.1
20260509065348 42 145 0.0 0.0 0.00 0.00 0.00 73 1000.1
20260509064850 42 145 0.0 2.0 0.00 0.00 0.00 74 1000.1
20260509064257 42 145 0.0 2.0 0.00 0.00 0.00 73 1000.3
20260509063750 41 143 0.0 0.0 0.00 0.00 0.00 74 1000.2
20260509063525 40 165 0.0 1.0 0.00 0.00 0.00 77 1000.2
20260509062951 40 165 0.0 1.0 0.00 0.00 0.00 79 1000.5
20260509062202 40 165 0.0 0.0 0.00 0.00 0.00 79 1000.5
20260509061657 40 165 0.0 0.0 0.00 0.00 0.00 77 1000.5
20260509061159 40 165 0.0 0.0 0.00 0.00 0.00 77 1000.6
20260509060653 40 165 0.0 0.0 0.00 0.00 0.00 76 1000.6
20260509060145 41 165 0.0 0.0 0.00 0.00 0.00 75 1000.6
20260509055640 41 165 0.0 0.0 0.00 0.00 0.00 75 1000.6
20260509055330 41 165 0.0 0.0 0.00 0.00 0.00 75 1000.6
20260509055042 41 165 0.0 0.0 0.00 0.00 0.00 74 1000.6
20260509054001 40 165 0.0 0.0 0.00 0.00 0.00 74 1000.8
20260509053452 40 165 0.0 0.0 0.00 0.00 0.00 75 1000.8
20260509052948 40 165 0.0 0.0 0.00 0.00 0.00 74 1001.0
20260509052401 40 165 0.0 0.0 0.00 0.00 0.00 74 1001.0
20260509051847 40 165 0.0 0.0 0.00 0.00 0.00 73 1001.0
20260509051347 41 165 0.0 0.0 0.00 0.00 0.00 71 1001.0
20260509050804 41 165 0.0 0.0 0.00 0.00 0.00 71 1001.0
20260509050251 41 165 0.0 0.0 0.00 0.00 0.00 72 1001.0
20260509050044 41 165 0.0 0.0 0.00 0.00 0.00 72 1001.2
20260509045249 41 165 0.0 0.0 0.00 0.00 0.00 71 1001.2
20260509044655 41 165 0.0 0.0 0.00 0.00 0.00 69 1001.2
20260509044147 41 165 0.0 0.0 0.00 0.00 0.00 70 1001.3
20260509043643 42 165 0.0 0.0 0.00 0.00 0.00 70 1001.3
20260509043143 42 165 0.0 0.0 0.00 0.00 0.00 70 1001.3
20260509042642 42 165 0.0 0.0 0.00 0.00 0.00 69 1001.5
20260509042101 42 165 0.0 0.0 0.00 0.00 0.00 69 1001.6
20260509041601 42 165 0.0 0.0 0.00 0.00 0.00 68 1001.6
20260509041100 42 165 0.0 0.0 0.00 0.00 0.00 68 1001.7
20260509040550 42 165 0.0 0.0 0.00 0.00 0.00 68 1001.7
20260509040007 42 165 0.0 0.0 0.00 0.00 0.00 67 1001.7
20260509035500 42 165 0.0 0.0 0.00 0.00 0.00 66 1001.7
20260509034954 42 165 0.0 0.0 0.00 0.00 0.00 65 1001.7
20260509034443 42 165 0.0 0.0 0.00 0.00 0.00 65 1001.7
20260509033940 42 165 0.0 0.0 0.00 0.00 0.00 65 1001.8
20260509033408 42 165 0.0 0.0 0.00 0.00 0.00 65 1001.8
20260509032906 42 165 0.0 0.0 0.00 0.00 0.00 65 1002.1
20260509032443 42 165 0.0 0.0 0.00 0.00 0.00 65 1002.1
20260509032431 42 165 0.0 0.0 0.00 0.00 0.00 64 1002.1
20260509031359 43 165 0.0 0.0 0.00 0.00 0.00 64 1002.2
20260509030802 43 165 0.0 0.0 0.00 0.00 0.00 63 1002.2
20260509030257 44 165 0.0 0.0 0.00 0.00 0.00 63 1002.3
20260509025751 44 165 0.0 0.0 0.00 0.00 0.00 63 1002.4
20260509025246 44 165 0.0 0.0 0.00 0.00 0.00 62 1002.4
20260509024706 44 165 0.0 0.0 0.00 0.00 0.00 61 1002.4
20260509024204 45 165 0.0 0.0 0.00 0.00 0.00 60 1002.5
20260509023705 45 165 0.0 0.0 0.00 0.00 0.00 59 1002.5
20260509023205 46 165 0.0 0.0 0.00 0.00 0.00 58 1002.5
20260509022704 46 165 0.0 1.0 0.00 0.00 0.00 56 1002.7
20260509022159 47 165 0.0 2.0 0.00 0.00 0.00 55 1002.7
20260509021646 47 165 1.0 4.0 0.00 0.00 0.00 54 1002.7
20260509021147 48 165 1.0 4.0 0.00 0.00 0.00 53 1002.6
20260509020552 48 190 1.0 2.0 0.00 0.00 0.00 53 1002.7
20260509015549 50 190 0.0 0.0 0.00 0.00 0.00 51 1002.8
20260509015048 51 190 0.0 0.0 0.00 0.00 0.00 48 1002.9
20260509014552 52 190 0.0 0.0 0.00 0.00 0.00 45 1002.9
20260509014052 52 190 0.0 0.0 0.00 0.00 0.00 44 1003.0
20260509013515 53 190 0.0 0.0 0.00 0.00 0.00 42 1003.0
20260509013252 54 190 0.0 0.0 0.00 0.00 0.00 41 1003.1
20260509012446 55 190 0.0 0.0 0.00 0.00 0.00 40 1003.1
20260509011943 55 190 0.0 0.0 0.00 0.00 0.00 38 1003.2
20260509011727 55 190 0.0 0.0 0.00 0.00 0.00 38 1003.2
20260509011222 56 190 0.0 2.0 0.00 0.00 0.00 38 1003.2
20260509010439 56 190 1.0 4.0 0.00 0.00 0.00 38 1003.2
20260509005912 56 190 2.0 4.0 0.00 0.00 0.00 36 1003.2
20260509005404 56 191 1.0 4.0 0.00 0.00 0.00 36 1003.2
20260509004903 57 174 1.0 3.0 0.00 0.00 0.00 36 1003.4
20260509004403 57 207 2.0 4.0 0.00 0.00 0.00 35 1003.4
20260509003857 58 207 2.0 8.0 0.00 0.00 0.00 34 1003.4
20260509003356 58 172 3.0 8.0 0.00 0.00 0.00 34 1003.4
20260509003154 58 248 2.0 7.0 0.00 0.00 0.00 33 1003.4
20260509002651 58 213 2.0 7.0 0.00 0.00 0.00 33 1003.5
20260509001844 59 223 3.0 7.0 0.00 0.00 0.00 33 1003.5
20260509001342 59 232 3.0 6.0 0.00 0.00 0.00 32 1003.5
20260509000843 60 215 2.0 5.0 0.00 0.00 0.00 31 1003.6
20260509000607 60 215 2.0 5.0 0.00 0.00 0.00 31 1003.6
20260508235807 60 278 3.0 7.0 0.00 0.00 0.00 30 1003.6
20260508235310 61 266 3.0 7.0 0.00 0.00 0.00 31 1003.6
20260508234808 61 248 3.0 8.0 0.00 0.00 0.00 30 1003.6
20260508234608 61 258 4.0 8.0 0.00 0.00 0.00 30 1003.7
20260508233802 61 220 3.0 9.0 0.00 0.00 0.00 29 1003.7
20260508233301 62 221 3.0 9.0 0.00 0.00 0.00 30 1003.7
20260508232803 62 286 3.0 7.0 0.00 0.00 0.00 30 1003.8
20260508232307 62 264 3.0 8.0 0.00 0.00 0.00 30 1003.8
20260508231802 62 287 3.0 8.0 0.00 0.00 0.00 29 1003.8
20260508231604 62 247 4.0 12.0 0.00 0.00 0.00 29 1003.8
20260508230802 63 256 3.0 12.0 0.00 0.00 0.00 28 1003.9
20260508230303 63 240 2.0 6.0 0.00 0.00 0.00 29 1003.9
20260508230056 62 187 3.0 8.0 0.00 0.00 0.00 30 1003.8
20260508225306 62 291 4.0 8.0 0.00 0.00 0.00 28 1003.8
20260508224800 63 238 3.0 8.0 0.00 0.00 0.00 27 1003.9
20260508224603 63 281 2.0 5.0 0.00 0.00 0.00 29 1003.9
20260508223747 63 221 3.0 7.0 0.00 0.00 0.00 28 1003.9
20260508223247 63 277 3.0 8.0 0.00 0.00 0.00 28 1003.9
20260508222748 64 217 3.0 8.0 0.00 0.00 0.00 27 1004.0
20260508222247 64 207 3.0 11.0 0.00 0.00 0.00 28 1004.0
20260508222040 64 220 3.0 11.0 0.00 0.00 0.00 27 1004.0
20260508221243 64 306 1.0 5.0 0.00 0.00 0.00 29 1004.1
20260508220743 63 348 1.0 4.0 0.00 0.00 0.00 30 1004.1
20260508220540 63 10 2.0 15.0 0.00 0.00 0.00 31 1004.1
20260508215704 63 247 3.0 15.0 0.00 0.00 0.00 29 1004.2
20260508215205 63 281 3.0 8.0 0.00 0.00 0.00 27 1004.2
20260508214702 63 0 3.0 8.0 0.00 0.00 0.00 27 1004.2
20260508214613 62 296 4.0 10.0 0.00 0.00 0.00 29 1004.1
20260508214608 63 214 4.0 10.0 0.00 0.00 0.00 27 1004.2
20260508213201 62 290 5.0 10.0 0.00 0.00 0.00 27 1004.1
20260508213008 62 298 4.0 9.0 0.00 0.00 0.00 28 1004.3
20260508212201 62 235 4.0 9.0 0.00 0.00 0.00 28 1004.3
20260508211701 62 293 3.0 9.0 0.00 0.00 0.00 27 1004.3
20260508211201 62 211 3.0 8.0 0.00 0.00 0.00 28 1004.4
20260508210657 62 285 4.0 11.0 0.00 0.00 0.00 29 1004.4
20260508210155 62 275 4.0 11.0 0.00 0.00 0.00 29 1004.4
20260508205656 62 222 3.0 9.0 0.00 0.00 0.00 28 1004.4
20260508205154 62 273 2.0 7.0 0.00 0.00 0.00 29 1004.4
20260508204657 62 265 2.0 7.0 0.00 0.00 0.00 29 1004.4
20260508204154 62 266 3.0 8.0 0.00 0.00 0.00 29 1004.5
20260508203655 61 298 3.0 8.0 0.00 0.00 0.00 29 1004.4
20260508203155 61 229 2.0 11.0 0.00 0.00 0.00 30 1004.4
20260508202653 62 269 2.0 11.0 0.00 0.00 0.00 29 1004.8
20260508202153 62 193 4.0 11.0 0.00 0.00 0.00 28 1004.9
20260508201653 62 304 4.0 11.0 0.00 0.00 0.00 28 1004.9
20260508201153 62 283 5.0 11.0 0.00 0.00 0.00 27 1004.9
20260508200954 62 263 5.0 11.0 0.00 0.00 0.00 28 1004.9
20260508200205 62 0 4.0 12.0 0.00 0.00 0.00 30 1004.9
20260508195652 63 288 4.0 12.0 0.00 0.00 0.00 27 1005.0
20260508195152 63 321 3.0 13.0 0.00 0.00 0.00 30 1005.0
20260508194655 63 309 3.0 13.0 0.00 0.00 0.00 27 1005.0
20260508194151 62 293 3.0 9.0 0.00 0.00 0.00 34 1005.4
20260508193646 62 281 3.0 8.0 0.00 0.00 0.00 27 1005.3
20260508193144 63 281 2.0 8.0 0.00 0.00 0.00 29 1005.4
20260508192644 63 273 2.0 7.0 0.00 0.00 0.00 29 1005.4
20260508192141 63 262 3.0 6.0 0.00 0.00 0.00 27 1005.4
20260508191108 62 355 4.0 12.0 0.00 0.00 0.00 32 1005.5
20260508190602 62 244 4.0 11.0 0.00 0.00 0.00 29 1005.5
20260508190107 62 308 4.0 10.0 0.00 0.00 0.00 31 1005.4
20260508185553 61 290 4.0 10.0 0.00 0.00 0.00 32 1005.6
20260508185055 61 308 4.0 9.0 0.00 0.00 0.00 30 1005.6
20260508184555 62 256 4.0 9.0 0.00 0.00 0.00 30 1005.6
20260508184058 62 243 2.0 9.0 0.00 0.00 0.00 30 1005.9
20260508183555 61 320 2.0 7.0 0.00 0.00 0.00 31 1005.9
20260508183052 60 347 3.0 12.0 0.00 0.00 0.00 36 1005.8
20260508182547 60 290 4.0 12.0 0.00 0.00 0.00 31 1005.9
20260508182035 59 111 4.0 11.0 0.00 0.00 0.00 31 1005.9
20260508181512 60 180 3.0 10.0 0.00 0.00 0.00 32 1005.9
20260508181010 60 179 3.0 9.0 0.00 0.00 0.00 30 1006.2
20260508180509 60 273 3.0 6.0 0.00 0.00 0.00 32 1006.2
20260508180008 60 258 4.0 10.0 0.00 0.00 0.00 34 1006.2
20260508175509 60 257 5.0 11.0 0.00 0.00 0.00 31 1006.5
20260508175008 59 292 5.0 13.0 0.00 0.00 0.00 33 1006.4
20260508174509 59 270 4.0 13.0 0.00 0.00 0.00 32 1006.4
20260508174009 59 265 4.0 8.0 0.00 0.00 0.00 32 1006.6
20260508173509 59 279 4.0 9.0 0.00 0.00 0.00 32 1006.6
20260508173318 59 234 4.0 11.0 0.00 0.00 0.00 31 1006.6
20260508172516 60 183 3.0 11.0 0.00 0.00 0.00 32 1006.9
20260508172005 60 259 2.0 11.0 0.00 0.00 0.00 35 1007.0
20260508171505 60 236 5.0 13.0 0.00 0.00 0.00 30 1006.9
20260508171004 60 262 5.0 14.0 0.00 0.00 0.00 31 1007.1
20260508170501 60 262 5.0 14.0 0.00 0.00 0.00 33 1007.1
20260508170309 60 265 5.0 14.0 0.00 0.00 0.00 33 1007.3
20260508165500 60 214 4.0 12.0 0.00 0.00 0.00 31 1007.3
20260508164958 60 279 4.0 13.0 0.00 0.00 0.00 36 1007.3
20260508164501 60 254 4.0 13.0 0.00 0.00 0.00 33 1007.6
20260508163948 59 247 4.0 11.0 0.00 0.00 0.00 33 1007.6
20260508163450 59 5 3.0 9.0 0.00 0.00 0.00 33 1007.6
20260508162949 60 273 2.0 8.0 0.00 0.00 0.00 33 1007.6
20260508162757 59 73 2.0 8.0 0.00 0.00 0.00 32 1007.6
20260508161949 58 40 3.0 11.0 0.00 0.00 0.00 32 1007.5
20260508161452 58 290 3.0 11.0 0.00 0.00 0.00 34 1007.5
20260508160950 58 200 3.0 11.0 0.00 0.00 0.00 34 1007.5
20260508160742 58 235 3.0 11.0 0.00 0.00 0.00 34 1007.5
20260508160250 58 199 5.0 10.0 0.00 0.00 0.00 33 1007.6
20260508155444 58 267 5.0 10.0 0.00 0.00 0.00 34 1007.6
20260508154943 57 217 4.0 10.0 0.00 0.00 0.00 32 1007.6
20260508154445 57 248 4.0 10.0 0.00 0.00 0.00 33 1007.5
20260508153945 57 178 4.0 9.0 0.00 0.00 0.00 32 1007.5
20260508153756 57 263 3.0 9.0 0.00 0.00 0.00 34 1007.6
20260508152946 57 265 3.0 8.0 0.00 0.00 0.00 34 1007.6
20260508152838 57 292 3.0 8.0 0.00 0.00 0.00 39 1007.6
20260508152832 57 292 3.0 8.0 0.00 0.00 0.00 36 1007.6
20260508151427 56 157 4.0 8.0 0.00 0.00 0.00 38 1007.8
20260508150915 56 281 3.0 9.0 0.00 0.00 0.00 39 1007.7
20260508150414 55 271 5.0 12.0 0.00 0.00 0.00 39 1007.7
20260508145913 55 231 6.0 12.0 0.00 0.00 0.00 39 1007.8
20260508145409 55 211 6.0 11.0 0.00 0.00 0.00 38 1007.8
20260508144904 54 161 5.0 11.0 0.00 0.00 0.00 41 1007.7
20260508144404 55 234 4.0 8.0 0.00 0.00 0.00 41 1007.8
20260508144217 54 201 4.0 8.0 0.00 0.00 0.00 41 1007.8
20260508143404 54 293 4.0 10.0 0.00 0.00 0.00 41 1007.8
20260508142857 54 231 4.0 10.0 0.00 0.00 0.00 40 1007.8
20260508142355 53 188 4.0 12.0 0.00 0.00 0.00 42 1007.8
20260508142159 53 286 5.0 12.0 0.00 0.00 0.00 45 1007.7
20260508141355 52 205 5.0 10.0 0.00 0.00 0.00 44 1007.8
20260508140905 52 231 4.0 10.0 0.00 0.00 0.00 47 1007.8
20260508140352 52 279 4.0 10.0 0.00 0.00 0.00 53 1007.8
20260508135854 51 229 3.0 7.0 0.00 0.00 0.00 53 1007.9